Location: Cucq
(50.4773°N, 1.6202°E)
Time: 06:30:10
(UTC+00:00)

Cosmos 2266 Rocket - Pass Details

Date: 07 August 2020
Orbit: 934 x 1008 km, 82.9° (Epoch: 23 September)

Event Time Altitude Azimuth Distance (km) Brightness Sun altitude
Rises 02:29:03 0° 349° (N) 3,747 7.7 -15.6°
Reaches altitude 10° 02:31:37 10° 349° (N) 2,788 7.0 -15.3°
Maximum altitude 02:38:02 84° 263° (W) 1,005 4.0 -14.7°
Drops below altitude 10° 02:44:19 10° 176° (S) 2,726 5.9 -14.0°
Enters shadow 02:45:00 - 176° (S) 2,986 6.1 -14.0°
